Home   Weather   Waterbury   Past weeks

Flag for USA Past Weather in Waterbury, Connecticut, USA — Yesterday and Last 2 Weeks

Now
46 °F

Overcast.


Feels Like: 42 °F
Forecast: 45 / 68 °F
Wind: 9 mph from Southeast

Location: Oxford

Current Time: Apr 30, 2017 at 10:23:56 pm

Latest Report: Apr 30, 2017 at 9:35 pm


Visibility: 10 mi

Pressure: 30.22 "Hg

Humidity: 62%

Dew Point: 34 °F

Location of WaterburyLocation

Past Weather in Waterbury — Graph

°F

Waterbury Temperature Yesterday

Maximum temperature yesterday: 81 °F (at 2:50 pm)
Minimum temperature yesterday: 61 °F (at 4:35 am)
Average temperature yesterday: 67 °F

High & Low Weather Summary for the Past Weeks

 TemperatureHumidityPressure
High82 °F (Apr 16, 3:50 pm)94% (Apr 27, 12:35 am)30.55 "Hg (Apr 27, 12:35 am)
Low37 °F (Apr 19, 5:35 am)24% (Apr 17, 5:50 pm)29.75 "Hg (Apr 16, 6:50 pm)
Average54 °F70%30.06 "Hg
* Reported Apr 15 7:50 pm — Apr 30 7:47 pm, Waterbury, Weather by CustomWeather, © 2017

Note: Actual official high and low records may vary slightly from our data, if they occured in-between our weather recording intervals... More about our weather records

Advertising

Waterbury Weather History for the Previous 24 Hours

Scroll right to see more
 ConditionsComfort  
Time TempWeatherWind HumidityBarometerVisibility
7:47 pm
Sun, Apr 30
48 °FOvercast.8 mph58%30.22 "Hg10 mi
6:50 pm50 °FOvercast.13 mph58%30.21 "Hg10 mi
5:50 pm52 °FOvercast.10 mph58%30.25 "Hg10 mi
4:50 pm52 °FOvercast.8 mph58%30.24 "Hg10 mi
3:50 pm52 °FOvercast.7 mph58%30.24 "Hg10 mi
2:50 pm54 °FOvercast.13 mph58%30.25 "Hg10 mi
1:50 pm57 °FOvercast.13 mph51%30.23 "Hg10 mi
12:50 pm57 °FOvercast.7 mph51%30.27 "Hg10 mi
11:50 am59 °FLight rain. Overcast.9 mph45%30.24 "Hg10 mi
10:55 am57 °FOvercast.8 mph44%30.25 "Hg10 mi
9:50 am55 °FPartly sunny.9 mph44%30.26 "Hg10 mi
8:50 am55 °FScattered clouds.9 mph47%30.26 "Hg10 mi
7:50 am52 °FScattered clouds.12 mph50%30.24 "Hg10 mi
6:50 am50 °FScattered clouds.12 mph54%30.22 "Hg10 mi
5:50 am50 °FPassing clouds.6 mph54%30.21 "Hg10 mi
5:35 am48 °FClear.12 mph58%30.20 "Hg10 mi
5:15 am48 °FClear.9 mph58%30.20 "Hg10 mi
4:55 am50 °FClear.8 mph54%30.20 "Hg10 mi
4:35 am52 °FClear.9 mph50%30.19 "Hg10 mi
4:15 am52 °FClear.10 mph47%30.18 "Hg10 mi
3:55 am54 °FClear.10 mph44%30.17 "Hg10 mi
3:35 am54 °FClear.14 mph44%30.17 "Hg10 mi
3:15 am54 °FClear.10 mph47%30.16 "Hg10 mi
2:55 am55 °FClear.15 mph44%30.16 "Hg10 mi
2:35 am55 °FClear.10 mph47%30.16 "Hg10 mi
2:15 am57 °FClear.12 mph44%30.15 "Hg10 mi
1:55 am57 °FClear.16 mph48%30.14 "Hg10 mi
1:35 am57 °FClear.14 mph51%30.14 "Hg10 mi
1:15 am61 °FClear.12 mph45%30.15 "Hg10 mi
12:55 am61 °FClear.9 mph55%30.14 "Hg10 mi
12:35 am61 °FClear.6 mph55%30.13 "Hg10 mi
11:55 pm
Sat, Apr 29
63 °FClear.6 mph56%30.10 "Hg10 mi
11:35 pm63 °FClear.7 mph56%30.11 "Hg10 mi
11:15 pm63 °FClear.5 mph56%30.11 "Hg10 mi
10:55 pm63 °FClear.3 mph56%30.11 "Hg10 mi
10:35 pm63 °FPassing clouds.6 mph56%30.10 "Hg10 mi
10:15 pm64 °FPassing clouds.5 mph56%30.10 "Hg10 mi
Weather by CustomWeather, © 2017

See weather overviewHow to use our weather pages